Location: Paddlesworth
(51.1000°N, 1.1333°E)
Time: 03:01:28
(UTC+00:00)

H-2A R/B - Pass Details

Date: 11 May 2021
Orbit: 573 x 598 km, 98.2° (Epoch: 14 June)

Event Time Altitude Azimuth Distance (km) Brightness Sun altitude
Rises 21:09:55 0° 22° (NNE) 2,849 7.4 -12.2°
Reaches altitude 10° 21:12:20 10° 34° (NNE) 1,939 6.3 -12.5°
Maximum altitude 21:16:02 30° 95° (E) 1,076 4.4 -12.8°
Enters shadow 21:17:58 21° 140° (SE) 1,358 4.7 -13.0°
